Sexton Summit, OR

10:51 AM PDT on October 19, 2019 (GMT -0700)
Sexton Summit

Weather History for KSXT - August, 2019

Change the Weather History Date:

Saturday, August 17, 2019

  Actual Average Record
Temperature  
Mean Temperature 62 °F -  
Max Temperature 73 °F 73 °F 90 °F (2012)
Min Temperature 51 °F 52 °F 45 °F (1996)
Degree Days  
Heating Degree Days 3    
Growing Degree Days 12 (Base 50)    
Moisture  
Dew Point 46 °F    
Average Humidity 58    
Maximum Humidity 83    
Minimum Humidity 39    
Precipitation  
Precipitation 0.00 in - - ()
Sea Level Pressure  
Sea Level Pressure 29.90 in    
Wind  
Wind Speed 8 mph (North)    
Max Wind Speed 15 mph    
Max Gust Speed 21 mph    
Visibility 10 miles    
Events      
Averages and records for this station are not official NWS values.
T = Trace of Precipitation, MM = Missing Value Source: NWS Daily Summary

Daily Weather History Graph

Daily Weather History Graph

Search for Another Location

Airport or City:

Astronomy

Aug. 17, 2019 Rise Set
Actual Time 6:22 AM PDT 8:12 PM PDT
Civil Twilight 5:51 AM PDT 8:42 PM PDT
Nautical Twilight 5:14 AM PDT 9:19 PM PDT
Astronomical Twilight 4:35 AM PDT 9:58 PM PDT
Moon 9:40 PM PDT (8/17) 8:17 AM PDT (8/17)
Length of Visible Light 14h 50m
Length of Day
13h 50m
Waning Gibbous, 95% of the Moon is Illuminated
Aug 17
Waning Gibbous
Aug 23
Last Quarter
Aug 30
New
Sep 5
First Quarter
Sep 13
Full

Hourly Weather History & Observations

Time (PDT) Temp. Dew Point Humidity Pressure Visibility Wind Dir Wind Speed Gust Speed Precip Events Conditions
12:56 AM 54.0 °F 46.0 °F 75% 29.95 in 10.0 mi North 11.5 mph - N/A   Clear
1:56 AM 52.0 °F 46.9 °F 83% 29.94 in 10.0 mi North 11.5 mph - N/A   Clear
2:56 AM 54.0 °F 44.1 °F 69% 29.92 in 10.0 mi North 9.2 mph 19.6 mph N/A   Clear
3:56 AM 54.0 °F 43.0 °F 66% 29.91 in 10.0 mi NE 6.9 mph - N/A   Clear
4:56 AM 51.1 °F 45.0 °F 80% 29.93 in 10.0 mi North 11.5 mph - N/A   Clear
5:56 AM 52.0 °F 45.0 °F 77% 29.93 in 10.0 mi North 15.0 mph - N/A   Clear
6:56 AM 53.1 °F 42.1 °F 66% 29.94 in 10.0 mi NNE 13.8 mph 20.7 mph N/A   Clear
7:56 AM 57.0 °F 37.9 °F 49% 29.94 in 10.0 mi NE 8.1 mph - N/A   Clear
8:56 AM 60.1 °F 46.0 °F 60% 29.95 in 10.0 mi Calm Calm - N/A   Clear
9:56 AM 61.0 °F 46.0 °F 58% 29.95 in 10.0 mi Calm Calm - N/A   Clear
10:56 AM 64.0 °F 48.9 °F 58% 29.95 in 10.0 mi Calm Calm - N/A   Clear
11:56 AM 64.9 °F 48.0 °F 54% 29.95 in 10.0 mi North 6.9 mph - N/A   Clear
12:56 PM 70.0 °F 48.9 °F 47% 29.93 in 10.0 mi Variable 3.5 mph - N/A   Clear
1:56 PM 72.0 °F 48.9 °F 44% 29.92 in 10.0 mi Calm Calm - N/A   Clear
2:56 PM 73.9 °F 48.9 °F 41% 29.89 in 10.0 mi Variable 3.5 mph - N/A   Clear
3:56 PM 73.0 °F 46.9 °F 39% 29.87 in 10.0 mi Variable 3.5 mph - N/A   Clear
4:56 PM 72.0 °F 46.9 °F 41% 29.86 in 10.0 mi Variable 3.5 mph - N/A   Clear
5:56 PM 71.1 °F 46.0 °F 41% 29.85 in 10.0 mi Variable 5.8 mph - N/A   Clear
6:56 PM 66.9 °F 45.0 °F 45% 29.85 in 10.0 mi NNW 5.8 mph - N/A   Clear
7:56 PM 63.0 °F 44.1 °F 50% 29.85 in 10.0 mi NNW 8.1 mph 17.3 mph N/A   Clear
8:56 PM 61.0 °F 45.0 °F 56% 29.84 in 10.0 mi NNW 9.2 mph - N/A   Clear
9:56 PM 59.0 °F 46.0 °F 62% 29.85 in 10.0 mi North 11.5 mph - N/A   Clear
10:56 PM 57.9 °F 46.0 °F 65% 29.84 in 10.0 mi NNW 9.2 mph - N/A   Clear
11:56 PM 57.0 °F 46.0 °F 67% 29.84 in 10.0 mi North 9.2 mph - N/A   Clear